Flag for Sweden Weather past 2 weeks in Malmö, Sweden

Now
34 °F

Mostly cloudy.


Feels Like: 27 °F
Forecast: 33 / 41 °F
Wind: 8 mph from West

Location: Malmo / Sturup

Current Time: Mar 4, 2015 at 8:15:23 AM

Latest Report: Mar 4, 2015 at 7:50 AM


Visibility: N/A

Pressure: 29.86 "Hg

Humidity: 93%

Dew point: 32 °F

Location of MalmöLocation

Historic Weather in Malmö — Graph

°F

Malmö temperature yesterday

Maximum temperature yesterday: 41 °F (at 11:20 AM)
Minimum temperature yesterday: 34 °F (at 10:20 PM)
Average temperature yesterday: 38 °F

Past Weeks' High & Low Weather Summary

 TemperatureHumidityPressure
High45 °F (Feb 26, 2:20 PM)100% (Feb 17, 8:50 PM)30.54 "Hg (Feb 17, 8:50 PM)
Low28 °F (Feb 26, 1:50 AM)65% (Feb 28, 1:20 PM)29.18 "Hg (Feb 21, 4:20 PM)
Average37 °F89%29.79 "Hg
* Reported Feb 17 7:20 AM — Mar 4 7:20 AM, Malmö, Weather by CustomWeather, © 2015

Note: Actual official high and low records may vary slightly from our data, if they occured in-between our weather recording intervals... More about our weather records

Advertising

Malmö weather history for previous 24 hours

 ConditionsComfort  
Time TempWeatherWind HumidityBarometerVisibility
7:20 AM
Wed, Mar 4
34 °FPartly sunny.8 mph93%29.86 "HgN/A
6:50 AM34 °FPassing clouds.9 mph93%29.83 "HgN/A
6:20 AM34 °FPassing clouds.10 mph93%29.83 "HgN/A
5:50 AM34 °FMostly cloudy.7 mph93%29.83 "HgN/A
5:20 AM34 °FMostly cloudy.8 mph93%29.80 "HgN/A
4:50 AM34 °FPartly cloudy.8 mph93%29.80 "HgN/A
4:20 AM34 °FPartly cloudy.8 mph93%29.80 "HgN/A
3:50 AM32 °FLight snow. Mostly cloudy.8 mph100%29.80 "Hg2 mi
3:20 AM32 °FSnow. Passing clouds.9 mph100%29.77 "Hg1 mi
2:50 AM34 °FLight snow. Passing clouds.10 mph93%29.77 "Hg3 mi
2:20 AM34 °FPassing clouds.7 mph100%29.77 "HgN/A
1:50 AM34 °FPassing clouds.9 mph100%29.77 "HgN/A
1:20 AM36 °FPassing clouds.12 mph93%29.77 "HgN/A
12:50 AM36 °FPartly cloudy.12 mph93%29.77 "HgN/A
12:20 AM36 °FMostly cloudy.12 mph93%29.77 "HgN/A
11:50 PM
Tue, Mar 3
37 °FOvercast.10 mph87%29.77 "HgN/A
11:20 PM36 °FOvercast.6 mph93%29.77 "HgN/A
10:50 PM34 °FPassing clouds.6 mph100%29.77 "HgN/A
10:20 PM34 °FClear.5 mph93%29.77 "Hg10 mi
9:50 PM36 °FClear.6 mph87%29.77 "Hg10 mi
9:20 PM36 °FClear.7 mph93%29.77 "Hg10 mi
8:50 PM36 °FClear.8 mph93%29.80 "Hg10 mi
8:20 PM36 °FClear.7 mph87%29.80 "Hg10 mi
7:50 PM36 °FClear.8 mph87%29.80 "Hg10 mi
7:20 PM36 °FClear.9 mph87%29.80 "Hg10 mi
6:50 PM36 °FClear.9 mph87%29.80 "Hg10 mi
6:20 PM36 °FClear.10 mph87%29.80 "Hg10 mi
5:50 PM36 °FClear.10 mph87%29.80 "Hg10 mi
5:20 PM37 °FSunny.13 mph81%29.80 "Hg10 mi
4:50 PM37 °FSunny.15 mph81%29.80 "Hg10 mi
4:20 PM37 °FScattered clouds.17 mph81%29.80 "HgN/A
3:50 PM41 °FScattered clouds.20 mph70%29.77 "HgN/A
3:20 PM41 °FScattered clouds.20 mph70%29.77 "HgN/A
2:50 PM41 °FPartly sunny.22 mph76%29.77 "HgN/A
2:20 PM41 °FPartly sunny.22 mph76%29.77 "HgN/A
1:50 PM41 °FPartly sunny.21 mph70%29.77 "HgN/A
1:20 PM41 °FPartly sunny.23 mph76%29.77 "HgN/A
12:50 PM41 °FBroken clouds.22 mph76%29.74 "HgN/A
12:20 PM41 °FScattered clouds.20 mph76%29.74 "HgN/A
11:50 AM39 °FBroken clouds.20 mph75%29.74 "HgN/A
11:20 AM41 °FBroken clouds.20 mph76%29.74 "HgN/A
10:50 AM39 °FBroken clouds.22 mph87%29.71 "HgN/A
10:20 AM39 °FPartly sunny.18 mph87%29.71 "HgN/A
9:50 AM37 °FPartly sunny.21 mph87%29.71 "HgN/A
9:20 AM37 °FPartly sunny.17 mph87%29.68 "HgN/A
8:50 AM37 °FPartly sunny.15 mph87%29.68 "HgN/A
8:20 AM37 °FPartly sunny.16 mph87%29.65 "HgN/A
Weather by CustomWeather, © 2015

See weather overviewHow to use our weather pages